| time (UTC) | temp C | wind direction | speed KPH | gust KPH | rain 1hr cm | rain 24hr cm | rain mn cm | humidity % | barometer mb |
| 20260506134246 | 23 | 288 | 8.0 | 19.3 | 0.00 | 0.00 | 0.00 | 71 | 1015.9 |
| 20260506133741 | 23 | 174 | 8.0 | 20.9 | 0.00 | 0.00 | 0.00 | 71 | 1016.0 |
| 20260506133233 | 23 | 298 | 8.0 | 17.7 | 0.00 | 0.00 | 0.00 | 72 | 1016.2 |
| 20260506132947 | 23 | 110 | 6.4 | 20.9 | 0.00 | 0.00 | 0.00 | 73 | 1016.4 |
| 20260506132232 | 23 | 257 | 6.4 | 22.5 | 0.00 | 0.00 | 0.00 | 73 | 1016.3 |
| 20260506131732 | 22 | 295 | 8.0 | 22.5 | 0.00 | 0.00 | 0.00 | 75 | 1016.1 |
| 20260506131232 | 22 | 164 | 8.0 | 20.9 | 0.00 | 0.00 | 0.00 | 75 | 1016.2 |
| 20260506130732 | 22 | 161 | 11.3 | 20.9 | 0.00 | 0.00 | 0.00 | 76 | 1016.1 |
| 20260506130232 | 22 | 212 | 11.3 | 24.1 | 0.00 | 0.00 | 0.00 | 76 | 1016.0 |
| 20260506125945 | 22 | 147 | 11.3 | 24.1 | 0.00 | 0.00 | 0.00 | 75 | 1016.0 |
| 20260506125231 | 22 | 216 | 8.0 | 22.5 | 0.00 | 0.00 | 0.00 | 77 | 1016.2 |
| 20260506124732 | 22 | 212 | 8.0 | 20.9 | 0.00 | 0.00 | 0.00 | 77 | 1016.2 |
| 20260506124444 | 21 | 205 | 8.0 | 22.5 | 0.00 | 0.00 | 0.00 | 77 | 1016.3 |
| 20260506123732 | 21 | 231 | 8.0 | 22.5 | 0.00 | 0.00 | 0.00 | 77 | 1016.4 |
| 20260506123234 | 21 | 148 | 8.0 | 20.9 | 0.00 | 0.00 | 0.00 | 77 | 1016.5 |
| 20260506122734 | 21 | 214 | 9.7 | 20.9 | 0.00 | 0.00 | 0.00 | 77 | 1016.5 |
| 20260506122239 | 21 | 211 | 9.7 | 20.9 | 0.00 | 0.00 | 0.00 | 77 | 1016.5 |
| 20260506121949 | 21 | 162 | 8.0 | 20.9 | 0.00 | 0.00 | 0.00 | 77 | 1016.4 |
| 20260506121233 | 21 | 170 | 8.0 | 20.9 | 0.00 | 0.00 | 0.00 | 77 | 1016.4 |
| 20260506120732 | 21 | 236 | 8.0 | 22.5 | 0.00 | 0.00 | 0.00 | 77 | 1016.4 |
| 20260506120231 | 21 | 225 | 9.7 | 22.5 | 0.00 | 0.00 | 0.00 | 77 | 1016.4 |
| 20260506115731 | 21 | 207 | 9.7 | 19.3 | 0.00 | 0.00 | 0.00 | 77 | 1016.2 |
| 20260506115231 | 21 | 143 | 9.7 | 19.3 | 0.00 | 0.00 | 0.00 | 77 | 1016.2 |
| 20260506114731 | 20 | 153 | 9.7 | 22.5 | 0.00 | 0.00 | 0.00 | 78 | 1016.3 |
| 20260506114232 | 20 | 179 | 11.3 | 22.5 | 0.00 | 0.00 | 0.00 | 78 | 1016.4 |
| 20260506113731 | 20 | 219 | 11.3 | 24.1 | 0.00 | 0.00 | 0.00 | 78 | 1016.3 |
| 20260506113231 | 20 | 188 | 12.9 | 24.1 | 0.00 | 0.00 | 0.00 | 78 | 1016.4 |
| 20260506112731 | 20 | 176 | 11.3 | 25.7 | 0.00 | 0.00 | 0.00 | 78 | 1016.4 |
| 20260506112446 | 20 | 176 | 9.7 | 25.7 | 0.00 | 0.00 | 0.00 | 79 | 1016.2 |
| 20260506111731 | 19 | 172 | 9.7 | 22.5 | 0.00 | 0.00 | 0.00 | 79 | 1016.3 |
| 20260506111233 | 19 | 221 | 11.3 | 22.5 | 0.00 | 0.00 | 0.00 | 79 | 1016.4 |
| 20260506110733 | 19 | 145 | 11.3 | 20.9 | 0.00 | 0.00 | 0.00 | 79 | 1016.4 |
| 20260506110448 | 19 | 143 | 9.7 | 20.9 | 0.00 | 0.00 | 0.00 | 79 | 1016.3 |
| 20260506105734 | 19 | 165 | 8.0 | 20.9 | 0.00 | 0.00 | 0.00 | 80 | 1016.5 |
| 20260506105231 | 19 | 189 | 9.7 | 17.7 | 0.00 | 0.00 | 0.00 | 80 | 1016.4 |
| 20260506104725 | 18 | 113 | 9.7 | 20.9 | 0.00 | 0.00 | 0.00 | 80 | 1016.3 |
| 20260506104226 | 18 | 187 | 9.7 | 20.9 | 0.00 | 0.00 | 0.00 | 81 | 1016.3 |
| 20260506103726 | 18 | 176 | 8.0 | 20.9 | 0.00 | 0.00 | 0.00 | 81 | 1016.2 |
| 20260506103226 | 18 | 160 | 8.0 | 19.3 | 0.00 | 0.00 | 0.00 | 81 | 1016.0 |
| 20260506102725 | 18 | 160 | 8.0 | 19.3 | 0.00 | 0.00 | 0.00 | 81 | 1016.0 |
| 20260506102226 | 18 | 158 | 8.0 | 17.7 | 0.00 | 0.00 | 0.00 | 81 | 1016.0 |
| 20260506101726 | 18 | 186 | 9.7 | 19.3 | 0.00 | 0.00 | 0.00 | 82 | 1016.0 |
| 20260506101226 | 18 | 219 | 8.0 | 19.3 | 0.00 | 0.00 | 0.00 | 82 | 1016.0 |
| 20260506100726 | 18 | 205 | 8.0 | 22.5 | 0.00 | 0.00 | 0.00 | 82 | 1016.0 |
| 20260506100226 | 18 | 202 | 9.7 | 22.5 | 0.00 | 0.00 | 0.00 | 82 | 1016.0 |
| 20260506095726 | 18 | 187 | 9.7 | 20.9 | 0.00 | 0.00 | 0.00 | 82 | 1016.1 |
| 20260506095225 | 18 | 191 | 8.0 | 20.9 | 0.00 | 0.00 | 0.00 | 82 | 1016.1 |
| 20260506094726 | 18 | 174 | 8.0 | 17.7 | 0.00 | 0.00 | 0.00 | 82 | 1016.0 |
| 20260506094226 | 18 | 181 | 8.0 | 17.7 | 0.00 | 0.00 | 0.00 | 82 | 1016.0 |
| 20260506093941 | 18 | 179 | 8.0 | 17.7 | 0.00 | 0.00 | 0.00 | 82 | 1016.2 |
| 20260506093225 | 18 | 83 | 8.0 | 17.7 | 0.00 | 0.00 | 0.00 | 81 | 1016.2 |
| 20260506092726 | 18 | 179 | 6.4 | 16.1 | 0.00 | 0.00 | 0.00 | 82 | 1016.3 |
| 20260506092226 | 18 | 219 | 6.4 | 19.3 | 0.00 | 0.00 | 0.00 | 81 | 1016.3 |
| 20260506091940 | 18 | 238 | 6.4 | 19.3 | 0.00 | 0.00 | 0.00 | 81 | 1016.3 |
| 20260506091226 | 18 | 181 | 6.4 | 14.5 | 0.00 | 0.00 | 0.00 | 81 | 1016.3 |
| 20260506090941 | 18 | 178 | 8.0 | 19.3 | 0.00 | 0.00 | 0.00 | 81 | 1016.3 |
| 20260506090225 | 18 | 167 | 6.4 | 19.3 | 0.00 | 0.00 | 0.00 | 81 | 1016.3 |
| 20260506085726 | 18 | 200 | 6.4 | 14.5 | 0.00 | 0.00 | 0.00 | 81 | 1016.2 |
| 20260506085225 | 18 | 212 | 6.4 | 14.5 | 0.00 | 0.00 | 0.00 | 81 | 1016.3 |
| 20260506084723 | 18 | 256 | 8.0 | 19.3 | 0.00 | 0.00 | 0.00 | 81 | 1016.2 |
| 20260506084224 | 18 | 204 | 8.0 | 19.3 | 0.00 | 0.00 | 0.00 | 81 | 1016.1 |
| 20260506083726 | 18 | 225 | 8.0 | 17.7 | 0.00 | 0.00 | 0.00 | 81 | 1016.1 |
| 20260506083437 | 18 | 165 | 8.0 | 17.7 | 0.00 | 0.00 | 0.00 | 81 | 1016.0 |
| 20260506082724 | 18 | 187 | 6.4 | 17.7 | 0.00 | 0.00 | 0.00 | 81 | 1016.1 |
| 20260506082224 | 18 | 220 | 6.4 | 16.1 | 0.00 | 0.00 | 0.00 | 82 | 1016.0 |
| 20260506081721 | 18 | 131 | 6.4 | 16.1 | 0.00 | 0.00 | 0.00 | 82 | 1016.0 |
| 20260506081221 | 18 | 160 | 8.0 | 17.7 | 0.00 | 0.00 | 0.00 | 82 | 1016.0 |
| 20260506080721 | 18 | 224 | 9.7 | 17.7 | 0.00 | 0.00 | 0.00 | 82 | 1015.9 |
| 20260506080221 | 18 | 195 | 8.0 | 17.7 | 0.00 | 0.00 | 0.00 | 81 | 1015.9 |
| 20260506073427 | 18 | 199 | 6.4 | 14.5 | 0.00 | 0.00 | 0.00 | 80 | 1016.3 |
| 20260506072716 | 18 | 243 | 6.4 | 17.7 | 0.00 | 0.00 | 0.00 | 80 | 1016.2 |
| 20260506072216 | 18 | 147 | 6.4 | 17.7 | 0.00 | 0.00 | 0.00 | 80 | 1016.1 |
| 20260506071716 | 18 | 190 | 6.4 | 14.5 | 0.00 | 0.00 | 0.00 | 80 | 1016.2 |
| 20260506071216 | 18 | 153 | 6.4 | 12.9 | 0.00 | 0.00 | 0.00 | 80 | 1016.2 |
| 20260506070715 | 18 | 156 | 6.4 | 12.9 | 0.00 | 0.00 | 0.00 | 80 | 1016.2 |
| 20260506070216 | 18 | 319 | 6.4 | 16.1 | 0.00 | 0.00 | 0.00 | 80 | 1016.3 |
| 20260506062212 | 18 | 14 | 6.4 | 16.1 | 0.00 | 0.00 | 0.00 | 80 | 1016.6 |
| 20260506061714 | 18 | 245 | 6.4 | 16.1 | 0.00 | 0.00 | 0.00 | 81 | 1016.7 |
| 20260506061425 | 18 | 257 | 4.8 | 16.1 | 0.00 | 0.00 | 0.00 | 81 | 1016.8 |
| 20260506060712 | 18 | 197 | 3.2 | 14.5 | 0.00 | 0.00 | 0.00 | 81 | 1016.8 |
| 20260506060207 | 18 | 152 | 3.2 | 11.3 | 0.00 | 0.00 | 0.00 | 81 | 1016.9 |
| 20260506051206 | 18 | 196 | 6.4 | 16.1 | 0.00 | 0.00 | 0.00 | 80 | 1017.2 |
| 20260506050702 | 18 | 206 | 4.8 | 16.1 | 0.00 | 0.00 | 0.00 | 80 | 1017.1 |
| 20260506050204 | 18 | 155 | 4.8 | 17.7 | 0.00 | 0.00 | 0.00 | 80 | 1017.2 |
| 20260506044704 | 18 | 219 | 6.4 | 17.7 | 0.00 | 0.00 | 0.00 | 80 | 1017.2 |
| 20260506044205 | 18 | 174 | 6.4 | 16.1 | 0.00 | 0.00 | 0.00 | 80 | 1017.4 |
| 20260506043701 | 18 | 168 | 6.4 | 20.9 | 0.00 | 0.00 | 0.00 | 80 | 1017.3 |
| 20260506043409 | 18 | 282 | 6.4 | 20.9 | 0.00 | 0.00 | 0.00 | 80 | 1017.3 |
| 20260506042657 | 18 | 115 | 6.4 | 16.1 | 0.00 | 0.00 | 0.00 | 80 | 1017.3 |
| 20260506042157 | 18 | 183 | 8.0 | 19.3 | 0.00 | 0.00 | 0.00 | 80 | 1017.3 |
| 20260506041651 | 18 | 214 | 6.4 | 19.3 | 0.00 | 0.00 | 0.00 | 80 | 1017.3 |
| 20260506041145 | 18 | 307 | 8.0 | 20.9 | 0.00 | 0.00 | 0.00 | 81 | 1017.3 |
| 20260506040639 | 18 | 108 | 6.4 | 20.9 | 0.00 | 0.00 | 0.00 | 81 | 1017.4 |
| 20260506040133 | 18 | 265 | 6.4 | 17.7 | 0.00 | 0.00 | 0.00 | 81 | 1017.4 |
| 20260506035631 | 18 | 307 | 8.0 | 17.7 | 0.00 | 0.00 | 0.00 | 81 | 1017.4 |
| 20260506035131 | 18 | 143 | 6.4 | 17.7 | 0.00 | 0.00 | 0.00 | 81 | 1017.4 |
| 20260506034633 | 18 | 166 | 8.0 | 17.7 | 0.00 | 0.00 | 0.00 | 81 | 1017.3 |
| 20260506034129 | 18 | 166 | 8.0 | 20.9 | 0.00 | 0.00 | 0.00 | 81 | 1017.3 |
| 20260506033629 | 18 | 179 | 8.0 | 20.9 | 0.00 | 0.00 | 0.00 | 81 | 1017.3 |
| 20260506033129 | 18 | 181 | 8.0 | 20.9 | 0.00 | 0.00 | 0.00 | 81 | 1017.3 |
| 20260506032630 | 18 | 200 | 6.4 | 19.3 | 0.00 | 0.00 | 0.00 | 81 | 1017.4 |
| 20260506032129 | 18 | 231 | 8.0 | 20.9 | 0.00 | 0.00 | 0.00 | 81 | 1017.5 |
| 20260506031629 | 19 | 223 | 6.4 | 22.5 | 0.00 | 0.00 | 0.00 | 81 | 1017.4 |
| 20260506031129 | 19 | 227 | 8.0 | 22.5 | 0.00 | 0.00 | 0.00 | 81 | 1017.4 |
| 20260506030629 | 19 | 123 | 8.0 | 22.5 | 0.00 | 0.00 | 0.00 | 80 | 1017.4 |
| 20260506030128 | 19 | 187 | 8.0 | 22.5 | 0.00 | 0.00 | 0.00 | 80 | 1017.4 |
| 20260506025629 | 19 | 200 | 8.0 | 22.5 | 0.00 | 0.00 | 0.00 | 80 | 1017.5 |
| 20260506025343 | 19 | 205 | 8.0 | 22.5 | 0.00 | 0.00 | 0.00 | 80 | 1017.3 |
| 20260506024841 | 19 | 195 | 8.0 | 20.9 | 0.00 | 0.00 | 0.00 | 80 | 1017.3 |
| 20260506024354 | 19 | 174 | 9.7 | 20.9 | 0.00 | 0.00 | 0.00 | 80 | 1017.3 |
| 20260506024129 | 19 | 174 | 9.7 | 20.9 | 0.00 | 0.00 | 0.00 | 80 | 1017.3 |
| 20260506023632 | 19 | 172 | 9.7 | 20.9 | 0.00 | 0.00 | 0.00 | 80 | 1017.3 |
| 20260506023126 | 19 | 189 | 9.7 | 22.5 | 0.00 | 0.00 | 0.00 | 80 | 1017.3 |
| 20260506022621 | 19 | 259 | 11.3 | 25.7 | 0.00 | 0.00 | 0.00 | 79 | 1017.4 |
| 20260506022117 | 19 | 221 | 11.3 | 25.7 | 0.00 | 0.00 | 0.00 | 79 | 1017.3 |
| 20260506021818 | 19 | 205 | 9.7 | 25.7 | 0.00 | 0.00 | 0.00 | 79 | 1017.4 |
| 20260506021106 | 19 | 154 | 9.7 | 25.7 | 0.00 | 0.00 | 0.00 | 80 | 1017.5 |
| 20260506020609 | 19 | 207 | 9.7 | 25.7 | 0.00 | 0.00 | 0.00 | 79 | 1017.5 |
| 20260506020109 | 19 | 169 | 9.7 | 25.7 | 0.00 | 0.00 | 0.00 | 79 | 1017.5 |
| 20260506015607 | 19 | 194 | 9.7 | 20.9 | 0.00 | 0.00 | 0.00 | 79 | 1017.5 |
| 20260506015106 | 19 | 178 | 8.0 | 19.3 | 0.00 | 0.00 | 0.00 | 79 | 1017.5 |
| 20260506014604 | 20 | 164 | 8.0 | 22.5 | 0.00 | 0.00 | 0.00 | 79 | 1017.6 |
| 20260506014103 | 20 | 273 | 8.0 | 22.5 | 0.00 | 0.00 | 0.00 | 79 | 1017.5 |
| 20260506013603 | 20 | 133 | 9.7 | 24.1 | 0.00 | 0.00 | 0.00 | 79 | 1017.6 |
| 20260506013102 | 20 | 250 | 9.7 | 24.1 | 0.00 | 0.00 | 0.00 | 79 | 1017.4 |
| 20260506012603 | 20 | 231 | 8.0 | 20.9 | 0.00 | 0.00 | 0.00 | 78 | 1017.4 |
| 20260506012102 | 20 | 191 | 8.0 | 19.3 | 0.00 | 0.00 | 0.00 | 78 | 1017.4 |
| 20260506011602 | 20 | 296 | 8.0 | 19.3 | 0.00 | 0.00 | 0.00 | 78 | 1017.3 |
| 20260506011317 | 20 | 208 | 8.0 | 24.1 | 0.00 | 0.00 | 0.00 | 78 | 1017.4 |
| 20260506010820 | 20 | 188 | 9.7 | 24.1 | 0.00 | 0.00 | 0.00 | 77 | 1017.2 |
| 20260506010317 | 20 | 248 | 9.7 | 22.5 | 0.00 | 0.00 | 0.00 | 77 | 1017.1 |
| 20260506005609 | 20 | 160 | 6.4 | 19.3 | 0.00 | 0.00 | 0.00 | 77 | 1017.2 |
| 20260506005106 | 20 | 141 | 8.0 | 19.3 | 0.00 | 0.00 | 0.00 | 76 | 1017.1 |
| 20260506004606 | 20 | 194 | 8.0 | 30.6 | 0.00 | 0.00 | 0.00 | 75 | 1017.3 |
| 20260506004059 | 20 | 174 | 8.0 | 30.6 | 0.00 | 0.00 | 0.00 | 75 | 1017.1 |
| 20260506003553 | 20 | 183 | 8.0 | 27.4 | 0.00 | 0.00 | 0.00 | 74 | 1016.9 |
| 20260506003300 | 20 | 216 | 9.7 | 27.4 | 0.00 | 0.00 | 0.00 | 73 | 1016.9 |
| 20260506002538 | 20 | 108 | 9.7 | 24.1 | 0.00 | 0.00 | 0.00 | 73 | 1016.8 |
| 20260506002034 | 20 | 257 | 9.7 | 24.1 | 0.00 | 0.00 | 0.00 | 73 | 1016.8 |
| 20260506001531 | 20 | 102 | 8.0 | 20.9 | 0.00 | 0.00 | 0.00 | 72 | 1016.8 |
| 20260506001031 | 20 | 233 | 8.0 | 22.5 | 0.00 | 0.00 | 0.00 | 72 | 1016.8 |
| 20260506000531 | 20 | 174 | 8.0 | 22.5 | 0.00 | 0.00 | 0.00 | 72 | 1016.7 |
| 20260506000029 | 20 | 176 | 8.0 | 22.5 | 0.00 | 0.00 | 0.00 | 72 | 1016.6 |
| 20260505235529 | 21 | 175 | 8.0 | 20.9 | 0.00 | 0.00 | 0.00 | 71 | 1016.7 |
| 20260505235029 | 21 | 219 | 8.0 | 22.5 | 0.00 | 0.00 | 0.00 | 71 | 1016.7 |
| 20260505234530 | 21 | 316 | 9.7 | 24.1 | 0.00 | 0.00 | 0.00 | 70 | 1016.9 |
| 20260505234030 | 21 | 269 | 9.7 | 24.1 | 0.00 | 0.00 | 0.00 | 70 | 1016.8 |
| 20260505233529 | 21 | 172 | 9.7 | 24.1 | 0.00 | 0.00 | 0.00 | 69 | 1016.6 |
| 20260505233029 | 21 | 254 | 9.7 | 24.1 | 0.00 | 0.00 | 0.00 | 68 | 1016.6 |
| 20260505232529 | 21 | 300 | 8.0 | 22.5 | 0.00 | 0.00 | 0.00 | 67 | 1016.5 |
| 20260505232030 | 22 | 131 | 9.7 | 22.5 | 0.00 | 0.00 | 0.00 | 67 | 1016.6 |
| 20260505231529 | 22 | 181 | 11.3 | 24.1 | 0.00 | 0.00 | 0.00 | 67 | 1016.3 |
| 20260505231031 | 22 | 191 | 12.9 | 27.4 | 0.00 | 0.00 | 0.00 | 68 | 1016.3 |
| 20260505230529 | 21 | 203 | 12.9 | 27.4 | 0.00 | 0.00 | 0.00 | 68 | 1016.3 |
| 20260505230030 | 21 | 174 | 9.7 | 27.4 | 0.00 | 0.00 | 0.00 | 67 | 1016.4 |
| 20260505225526 | 21 | 174 | 9.7 | 27.4 | 0.00 | 0.00 | 0.00 | 67 | 1016.5 |
| 20260505225233 | 22 | 219 | 9.7 | 29.0 | 0.00 | 0.00 | 0.00 | 66 | 1016.4 |
| 20260505224517 | 22 | 238 | 9.7 | 29.0 | 0.00 | 0.00 | 0.00 | 66 | 1016.4 |
| 20260505224011 | 22 | 246 | 9.7 | 27.4 | 0.00 | 0.00 | 0.00 | 66 | 1016.4 |
| 20260505223508 | 22 | 229 | 11.3 | 33.8 | 0.00 | 0.00 | 0.00 | 66 | 1016.5 |
| 20260505223009 | 22 | 113 | 9.7 | 33.8 | 0.00 | 0.00 | 0.00 | 66 | 1016.4 |
| 20260505222508 | 22 | 170 | 9.7 | 29.0 | 0.00 | 0.00 | 0.00 | 65 | 1016.4 |
| 20260505222006 | 22 | 168 | 12.9 | 35.4 | 0.00 | 0.00 | 0.00 | 64 | 1016.4 |
| 20260505221719 | 23 | 287 | 12.9 | 35.4 | 0.00 | 0.00 | 0.00 | 63 | 1016.5 |
| 20260505221007 | 23 | 243 | 9.7 | 27.4 | 0.00 | 0.00 | 0.00 | 62 | 1016.5 |
| 20260505220714 | 23 | 229 | 11.3 | 32.2 | 0.00 | 0.00 | 0.00 | 61 | 1016.4 |
| 20260505220218 | 23 | 193 | 12.9 | 32.2 | 0.00 | 0.00 | 0.00 | 61 | 1016.4 |
| 20260505215503 | 23 | 264 | 12.9 | 29.0 | 0.00 | 0.00 | 0.00 | 60 | 1016.3 |
| 20260505215005 | 23 | 184 | 12.9 | 29.0 | 0.00 | 0.00 | 0.00 | 59 | 1016.4 |
| 20260505214502 | 23 | 181 | 12.9 | 29.0 | 0.00 | 0.00 | 0.00 | 59 | 1016.5 |
| 20260505214001 | 24 | 184 | 11.3 | 25.7 | 0.00 | 0.00 | 0.00 | 58 | 1016.3 |
| 20260505213502 | 24 | 311 | 14.5 | 29.0 | 0.00 | 0.00 | 0.00 | 59 | 1016.3 |
| 20260505213215 | 24 | 172 | 16.1 | 30.6 | 0.00 | 0.00 | 0.00 | 58 | 1016.3 |
| 20260505212504 | 24 | 182 | 17.7 | 32.2 | 0.00 | 0.00 | 0.00 | 58 | 1016.3 |
| 20260505212001 | 24 | 181 | 14.5 | 32.2 | 0.00 | 0.00 | 0.00 | 58 | 1016.3 |
| 20260505211504 | 24 | 172 | 12.9 | 27.4 | 0.00 | 0.00 | 0.00 | 59 | 1016.3 |
| 20260505211001 | 24 | 201 | 14.5 | 29.0 | 0.00 | 0.00 | 0.00 | 60 | 1016.3 |
| 20260505210507 | 24 | 177 | 14.5 | 29.0 | 0.00 | 0.00 | 0.00 | 59 | 1016.2 |
| 20260505210007 | 25 | 169 | 12.9 | 25.7 | 0.00 | 0.00 | 0.00 | 60 | 1016.3 |
| 20260505205507 | 25 | 123 | 11.3 | 25.7 | 0.00 | 0.00 | 0.00 | 60 | 1016.4 |
| 20260505205004 | 25 | 125 | 12.9 | 30.6 | 0.00 | 0.00 | 0.00 | 60 | 1016.5 |
| 20260505204502 | 25 | 311 | 16.1 | 33.8 | 0.00 | 0.00 | 0.00 | 60 | 1016.3 |
| 20260505204001 | 25 | 212 | 12.9 | 33.8 | 0.00 | 0.00 | 0.00 | 60 | 1016.4 |
| 20260505203502 | 25 | 212 | 11.3 | 32.2 | 0.00 | 0.00 | 0.00 | 60 | 1016.5 |
| 20260505203001 | 25 | 90 | 12.9 | 32.2 | 0.00 | 0.00 | 0.00 | 61 | 1016.6 |
| 20260505202504 | 25 | 347 | 12.9 | 30.6 | 0.00 | 0.00 | 0.00 | 61 | 1016.5 |
| 20260505202002 | 25 | 176 | 14.5 | 37.0 | 0.00 | 0.00 | 0.00 | 61 | 1016.6 |
| 20260505201715 | 25 | 179 | 14.5 | 37.0 | 0.00 | 0.00 | 0.00 | 61 | 1016.6 |
| 20260505201001 | 25 | 181 | 14.5 | 29.0 | 0.00 | 0.00 | 0.00 | 62 | 1016.6 |
| 20260505200716 | 24 | 188 | 16.1 | 32.2 | 0.00 | 0.00 | 0.00 | 62 | 1016.6 |
| 20260505200219 | 25 | 165 | 16.1 | 32.2 | 0.00 | 0.00 | 0.00 | 62 | 1016.7 |
| 20260505195506 | 25 | 140 | 16.1 | 37.0 | 0.00 | 0.00 | 0.00 | 63 | 1016.8 |
| 20260505195004 | 25 | 176 | 14.5 | 37.0 | 0.00 | 0.00 | 0.00 | 63 | 1016.7 |
| 20260505194504 | 25 | 205 | 14.5 | 29.0 | 0.00 | 0.00 | 0.00 | 63 | 1016.7 |
| 20260505194001 | 25 | 190 | 14.5 | 30.6 | 0.00 | 0.00 | 0.00 | 64 | 1016.9 |
| 20260505193501 | 24 | 185 | 16.1 | 30.6 | 0.00 | 0.00 | 0.00 | 63 | 1016.9 |
| 20260505193001 | 24 | 159 | 17.7 | 32.2 | 0.00 | 0.00 | 0.00 | 63 | 1016.9 |
| 20260505192501 | 24 | 187 | 17.7 | 32.2 | 0.00 | 0.00 | 0.00 | 63 | 1016.9 |
| 20260505192001 | 25 | 172 | 17.7 | 30.6 | 0.00 | 0.00 | 0.00 | 62 | 1017.0 |
| 20260505191501 | 25 | 195 | 16.1 | 30.6 | 0.00 | 0.00 | 0.00 | 63 | 1017.0 |
| 20260505191001 | 25 | 177 | 14.5 | 25.7 | 0.00 | 0.00 | 0.00 | 62 | 1017.0 |
| 20260505190506 | 25 | 174 | 12.9 | 25.7 | 0.00 | 0.00 | 0.00 | 62 | 1016.9 |
| 20260505190002 | 25 | 167 | 12.9 | 29.0 | 0.00 | 0.00 | 0.00 | 61 | 1016.9 |
| 20260505185501 | 25 | 202 | 16.1 | 35.4 | 0.00 | 0.00 | 0.00 | 61 | 1017.2 |
| 20260505185001 | 25 | 182 | 16.1 | 35.4 | 0.00 | 0.00 | 0.00 | 60 | 1017.2 |
| 20260505184502 | 25 | 201 | 11.3 | 27.4 | 0.00 | 0.00 | 0.00 | 59 | 1017.1 |
| 20260505184001 | 25 | 285 | 9.7 | 24.1 | 0.00 | 0.00 | 0.00 | 60 | 1017.3 |
| 20260505183503 | 25 | 302 | 9.7 | 22.5 | 0.00 | 0.00 | 0.00 | 59 | 1017.3 |
| 20260505183212 | 25 | 204 | 9.7 | 24.1 | 0.00 | 0.00 | 0.00 | 60 | 1017.4 |
| 20260505182504 | 25 | 309 | 11.3 | 24.1 | 0.00 | 0.00 | 0.00 | 60 | 1017.4 |
| 20260505182218 | 25 | 207 | 12.9 | 24.1 | 0.00 | 0.00 | 0.00 | 58 | 1017.5 |
| 20260505181459 | 25 | 143 | 12.9 | 27.4 | 0.00 | 0.00 | 0.00 | 57 | 1017.5 |
| 20260505181204 | 25 | 311 | 11.3 | 27.4 | 0.00 | 0.00 | 0.00 | 57 | 1017.4 |
| 20260505180657 | 25 | 292 | 9.7 | 22.5 | 0.00 | 0.00 | 0.00 | 58 | 1017.5 |
| 20260505175938 | 25 | 109 | 11.3 | 27.4 | 0.00 | 0.00 | 0.00 | 57 | 1017.5 |
| 20260505175648 | 25 | 195 | 11.3 | 27.4 | 0.00 | 0.00 | 0.00 | 55 | 1017.6 |
| 20260505175145 | 25 | 225 | 9.7 | 20.9 | 0.00 | 0.00 | 0.00 | 55 | 1017.6 |
| 20260505174432 | 25 | 141 | 12.9 | 25.7 | 0.00 | 0.00 | 0.00 | 58 | 1017.6 |
| 20260505174146 | 25 | 193 | 11.3 | 25.7 | 0.00 | 0.00 | 0.00 | 56 | 1017.6 |
| 20260505173431 | 25 | 300 | 9.7 | 22.5 | 0.00 | 0.00 | 0.00 | 53 | 1017.7 |
| 20260505172931 | 25 | 290 | 9.7 | 24.1 | 0.00 | 0.00 | 0.00 | 54 | 1017.8 |
| 20260505172433 | 25 | 311 | 9.7 | 24.1 | 0.00 | 0.00 | 0.00 | 55 | 1017.7 |
| 20260505171931 | 25 | 314 | 9.7 | 17.7 | 0.00 | 0.00 | 0.00 | 56 | 1017.7 |
| 20260505171433 | 25 | 301 | 9.7 | 17.7 | 0.00 | 0.00 | 0.00 | 56 | 1017.7 |
| 20260505170935 | 25 | 307 | 8.0 | 20.9 | 0.00 | 0.00 | 0.00 | 56 | 1017.8 |
| 20260505170429 | 25 | 322 | 8.0 | 20.9 | 0.00 | 0.00 | 0.00 | 56 | 1017.7 |
| 20260505165930 | 25 | 136 | 9.7 | 20.9 | 0.00 | 0.00 | 0.00 | 57 | 1017.7 |
| 20260505165429 | 25 | 291 | 11.3 | 20.9 | 0.00 | 0.00 | 0.00 | 56 | 1017.7 |
| 20260505164933 | 24 | 302 | 11.3 | 19.3 | 0.00 | 0.00 | 0.00 | 56 | 1017.8 |
| 20260505164429 | 24 | 311 | 9.7 | 27.4 | 0.00 | 0.00 | 0.00 | 57 | 1017.9 |
| 20260505163929 | 24 | 288 | 9.7 | 27.4 | 0.00 | 0.00 | 0.00 | 58 | 1018.0 |
| 20260505163431 | 23 | 293 | 11.3 | 20.9 | 0.00 | 0.00 | 0.00 | 59 | 1017.9 |
| 20260505163143 | 23 | 281 | 11.3 | 20.9 | 0.00 | 0.00 | 0.00 | 59 | 1017.9 |
| 20260505162429 | 23 | 291 | 9.7 | 20.9 | 0.00 | 0.00 | 0.00 | 59 | 1018.1 |
| 20260505161930 | 23 | 297 | 11.3 | 20.9 | 0.00 | 0.00 | 0.00 | 59 | 1018.2 |
| 20260505161428 | 23 | 289 | 11.3 | 20.9 | 0.00 | 0.00 | 0.00 | 60 | 1018.2 |
| 20260505160929 | 23 | 290 | 8.0 | 19.3 | 0.00 | 0.00 | 0.00 | 59 | 1018.1 |
| 20260505160429 | 23 | 262 | 8.0 | 19.3 | 0.00 | 0.00 | 0.00 | 59 | 1018.2 |
| 20260505152929 | 22 | 315 | 9.7 | 19.3 | 0.00 | 0.00 | 0.00 | 62 | 1018.5 |
| 20260505152429 | 22 | 269 | 9.7 | 19.3 | 0.00 | 0.00 | 0.00 | 62 | 1018.4 |
| 20260505151938 | 22 | 216 | 8.0 | 22.5 | 0.00 | 0.00 | 0.00 | 63 | 1018.4 |
| 20260505151642 | 22 | 247 | 11.3 | 24.1 | 0.00 | 0.00 | 0.00 | 63 | 1018.3 |
| 20260505150929 | 22 | 131 | 12.9 | 24.1 | 0.00 | 0.00 | 0.00 | 64 | 1018.5 |
| 20260505150428 | 22 | 284 | 11.3 | 22.5 | 0.00 | 0.00 | 0.00 | 64 | 1018.6 |
| 20260505140626 | 21 | 309 | 12.9 | 24.1 | 0.00 | 0.00 | 0.00 | 69 | 1018.5 |
| 20260505140404 | 21 | 342 | 12.9 | 24.1 | 0.00 | 0.00 | 0.00 | 69 | 1018.5 |